Location: *
(32.8667°N, 13.1833°E)
Time: 02:14:04
(UTC+00:00)

Cosmos 1461 - Pass Details

Date: 18 July 2019
Orbit: 526 x 641 km, 65.0° (Epoch: 24 August)

Event Time Altitude Azimuth Distance (km) Brightness Sun altitude
Rises 19:18:02 0° 341° (NNW) 2,667 7.3 -12.2°
Reaches altitude 10° 19:20:21 10° 351° (N) 1,781 6.1 -12.6°
Maximum altitude 19:24:00 34° 58° (ENE) 891 3.7 -13.2°
Enters shadow 19:26:01 21° 109° (ESE) 1,239 4.0 -13.6°
